FENGYUN 1C DEB

Satellite information

Favourite Embed

Satellite Type and Status

DEBRISIN ORBIT

Key statistics

Satellite FENGYUN 1C DEB at a glance.

Uptime

9555

Days in orbit

Revolutions

≈ 14.6

Per day

Orbit

SSO

Sun Synchronous Orbit

Inclination

98.9

Latest

Satellite identification and parameters

Extended collection of information and parameters for FENGYUN 1C DEB.

Object identification

Identified? True

Debris? True

Object name: FENGYUN 1C DEB

International designator: 1999-025JG

Object number (NORAD): 29934

Object ID (CCSDS): 29934

Country: PEOPLES REPUBLIC OF CHINA (PRC)

Current information (Y/N): Y

RCS size: MEDIUM

Orbital parameters

Period: 98.48 minutes

Inclination: 98.9212 deg

SMA: 7064.116 km

Apoapsis: 759.364 km

Periapsis: 612.597 km

RAAN: 221.746 deg

Eccentricy: 0.0103882

Argument of periapsis: 22.3632 deg

Mean anomaly: 338.2048 deg

Mean motion: 14.62231286 rev/day

Mean motion (dot): 0.00003528 rev/day2

B* drag term: 0.000659 1/REarth

Two-line elements (TLE)

Creation date: July 6, 2025, 6:05 p.m.

Reference frame: TEME

Reference center: EARTH

Epoch: July 6, 2025, 1:51 p.m. UTC

TLE line 0: 0 FENGYUN 1C DEB

TLE line 1: 1 29934U 99025JG 25187.57748433 .00003528 00000-0 65900-3 0 9997

TLE line 2: 2 29934 98.9212 221.7460 0103882 22.3632 338.2048 14.62231286974454

Live tracking on map

Real-time ground track for satellite FENGYUN 1C DEB.

In-orbit conjunctions

A list of the most updated potential collisions computed for object FENGYUN 1C DEB.

Target Orbit TCA Probability of collision Miss distance Type
ARIANE 40 R/B SSO 2025-06-23 05:11:34 0.001644104 215.0 (m) ROCKET BODY
SL-14 R/B LEO 2025-03-01 01:25:25 0.0001558394 951.0 (m) ROCKET BODY
FUSE 1 LEO 2024-12-15 01:44:47 0.000103741 889.0 (m) PAYLOAD

Associated space launch

Chinese polar orbiting meteorological satellite

FENGYUN 1C DEB was lifted into orbit during the mission ‘Long March 4B | Feng Yun 1C’, on board a Long March 4B space rocket.

The launch took place on May 10, 1999, 1:33 a.m. from Launch Complex 7.

For more information about the launch, click the button.

Launch to space Long March 4B | Feng Yun 1C
Long March 4B | Feng Yun 1C

Agency: N/A

Status: Launch Successful

Launch date: May 10, 1999, 1:33 a.m. UTC

Rocket: Long March 4B

Launch pad: Launch Complex 7

Location: Taiyuan Satellite Launch Center, People's Republic of China

...

Latest news about this satellite

There are no fresh news available about this satellite. Check back as we update our databases every day.


Newsletter sign-up

Weekly statistics, charts and insights to help you stay on top of the space industry.